OBJECT A, 61238

Orbit data source: Space-Track

You're viewing an Uncataloged Satellite

Recently launched and/or uncataloged satellites may have evolving metadata. Metadata may include but not limited to: Owner, Maufacturer, Bus, Motor, and Mission.

OBJECT A, 61238 is a Chinese satellite in SSO that was launched on Tue, 24 Sep 2024 UTC via a LIJIAN-1 launch vehicle from the Jiuquan Satellite Launch Center, China (JSC). Unknown objects in Earth's orbit typically refer to objects detected orbiting the Earth but have not yet been identified or cataloged. These objects could be anything from previously untracked satellites, spent rocket stages, debris from satellite collisions, or even natural meteoroids temporarily captured by Earth's gravity.

Loading next visibility...
Identifier
61238, 2024-174A
Orbit
SSO
Country
Flag of CNCN / PRC
Related business
None
Manufacturer
Unknown
Mission
Operational Commercial Radar Imaging
Bus & Motor
Unknown
Mass
Unknown
Launch date (UTC)
2024-09-24 (2 years ago)
Launch vehicle
LIJIAN-1
Launch site
Jiuquan Satellite Launch Center, China (JSC)
Object type
Unknown
Shape & HBR
Box + 3 Pan, 3.0 m
Radar Cross Section
3.533 m², Large (>1 m²)

Expand to show TLE details & history
Last TLE update: 2 days ago

TLE from 2 days ago
0 OBJECT A
1 61238U 24174A   26121.76296610  .00005240  00000-0  25251-3 0  9996
2 61238  97.4484 130.1749 0002519  80.7788 279.3731 15.19155138 88634
Epoch: 2026-05-01T18:18Z
TLE epoch observation values (Epoch: 2026-05-01T18:18:40.271Z)
Latitude
-0.00003°
Longitude
-4.18345°
Altitude
511.198 km
Speed
7.608 km/s
True Right ascension
08h 40m 41s
True Declination
0° 00' 00"
Sunlit
Object was in daylight at epoch
Visualization orbit readout
Latitude
Unknown
Longitude
Unknown
Altitude
Unknown
Speed
Unknown
Apparent Right ascension
Unknown
Apparent Declination
Unknown
Sunlit
N/A
Visualization observer readout
Local Sidereal Time
14:05:50
Azimuth
Unknown
Elevation
Unknown
Doppler factor
Unknown
Orbital elements
Apogee altitude
507.095 km
Perigee altitude
503.628 km
Semi-major axis
6,883.498 km
Eccentricity
0.00025
Inclination
97.4484°
RAAN
130.1749°
Arg. of periapsis
80.7788°
True anomaly
279.34462°
Mean anomaly
279.3731°
Eccentric anomaly
279.35886°
Mean motion
3.8004 °/min
Orbital period
94.73 mins
BSTAR
0.00025251
Loading maneuver chart data...
Computing Atmospheric mass density...
Loading historical data...
Loading historical data...
Loading historical data...
Loading historical data...
Loading historical data...
Loading historical data...
Loading historical data...

Documentation

Showing up to 5 results
|